Charlottesville, VA

7:54 AM EST on November 20, 2017 (GMT -0500)
Charlottesville-Albemarle

Weather History for KCHO - November, 2012

Change the Weather History Date:

Thursday, November 1, 2012

  Actual Average Record
Temperature  
Mean Temperature 47 °F 52 °F  
Max Temperature 54 °F 63 °F 85 °F (1950)
Min Temperature 40 °F 40 °F 26 °F (1925)
Degree Days  
Heating Degree Days 18 14  
Month to date heating degree days 18 14  
Since 1 July heating degree days 298 363  
Cooling Degree Days 0 0  
Month to date cooling degree days 0 0  
Year to date cooling degree days 1604 1034  
Moisture  
Dew Point 31 °F    
Average Humidity 56    
Maximum Humidity 67    
Minimum Humidity 45    
Precipitation  
Precipitation 0.00 in 0.12 in 1.54 in (1951)
Month to date precipitation 0.00 0.12  
Year to date precipitation 33.25 35.85  
Sea Level Pressure  
Sea Level Pressure 29.71 in    
Wind  
Wind Speed 4 mph (SW)    
Max Wind Speed 12 mph    
Max Gust Speed 18 mph    
Visibility 10 miles    
Events      
T = Trace of Precipitation, MM = Missing Value Source: NWS Daily Summary

Daily Weather History Graph

Daily Weather History Graph

Search for Another Location

Airport or City:

Trip Planner

Search our weather history database for the weather conditions in past years. The results will help you decide how hot, cold, wet, or windy it might be!

Date:

Astronomy

Nov. 01, 2012 Rise Set
Actual Time 7:40 AM EDT 6:13 PM EDT
Civil Twilight 7:12 AM EDT 6:41 PM EDT
Nautical Twilight 6:41 AM EDT 7:12 PM EDT
Astronomical Twilight 6:10 AM EDT 7:43 PM EDT
Moon 8:11 PM EDT (11/1) 10:09 AM EDT (11/1)
Length of Visible Light 11h 28m
Length of Day
10h 33m
Waning Gibbous, 93% of the Moon is Illuminated
Nov 1
Waning Gibbous
Nov 6
Last Quarter
Nov 13
New
Nov 20
First Quarter
Nov 28
Full

Hourly Weather History & Observations

Time (EDT) Temp. Windchill Dew Point Humidity Pressure Visibility Wind Dir Wind Speed Gust Speed Precip Events Conditions
12:53 AM 43.0 °F 38.8 °F 30.9 °F 62% 29.68 in 10.0 mi South 6.9 mph - N/A   Mostly Cloudy
1:53 AM 44.1 °F 42.5 °F 30.0 °F 58% 29.67 in 10.0 mi SW 3.5 mph - N/A   Scattered Clouds
2:53 AM 45.0 °F 42.6 °F 30.9 °F 58% 29.67 in 10.0 mi SSW 4.6 mph - N/A   Mostly Cloudy
4:53 AM 43.0 °F - 32.0 °F 65% 29.67 in 10.0 mi Calm Calm - N/A   Overcast
5:53 AM 44.1 °F - 30.9 °F 60% 29.67 in 10.0 mi Calm Calm - N/A   Overcast
6:53 AM 44.1 °F - 32.0 °F 63% 29.67 in 10.0 mi Calm Calm - N/A   Mostly Cloudy
7:53 AM 44.1 °F 42.5 °F 33.1 °F 65% 29.69 in 10.0 mi SW 3.5 mph - N/A   Overcast
8:53 AM 46.0 °F 44.8 °F 33.1 °F 61% 29.70 in 10.0 mi SSW 3.5 mph - N/A   Overcast
9:53 AM 48.0 °F - 32.0 °F 54% 29.71 in 10.0 mi SSW 4.6 mph - N/A   Overcast
10:53 AM 48.0 °F - 32.0 °F 54% 29.73 in 10.0 mi SSW 4.6 mph - N/A   Overcast
11:53 AM 50.0 °F - 30.9 °F 48% 29.73 in 10.0 mi Variable 3.5 mph - N/A   Overcast
12:53 PM 50.0 °F - 30.9 °F 48% 29.71 in 10.0 mi West 11.5 mph - N/A   Overcast
1:53 PM 50.0 °F - 32.0 °F 50% 29.69 in 10.0 mi SSW 3.5 mph - N/A   Overcast
2:53 PM 51.1 °F - 32.0 °F 48% 29.68 in 10.0 mi SW 5.8 mph - N/A   Overcast
3:53 PM 54.0 °F - 33.1 °F 45% 29.68 in 10.0 mi South 8.1 mph - N/A   Overcast
4:53 PM 53.1 °F - 32.0 °F 45% 29.69 in 10.0 mi Variable 3.5 mph - N/A   Overcast
5:53 PM 51.1 °F - 35.1 °F 54% 29.70 in 10.0 mi Calm Calm - N/A   Overcast
6:53 PM 50.0 °F - 33.1 °F 52% 29.72 in 10.0 mi NW 3.5 mph - N/A   Overcast
7:53 PM 48.0 °F - 30.0 °F 50% 29.75 in 10.0 mi NW 9.2 mph 18.4 mph N/A   Mostly Cloudy
8:53 PM 46.0 °F 44.8 °F 28.0 °F 50% 29.76 in 10.0 mi WNW 3.5 mph - N/A   Clear
9:53 PM 45.0 °F - 28.0 °F 52% 29.77 in 10.0 mi Calm Calm - N/A   Clear
10:53 PM 41.0 °F - 28.0 °F 60% 29.77 in 10.0 mi Calm Calm - N/A   Clear
11:53 PM 42.1 °F 39.2 °F 28.9 °F 60% 29.77 in 10.0 mi SW 4.6 mph - N/A   Clear